• Join FlightAware (Why Join?)
  • Login
  • US Flag 
12:06PM EDT


 

Airport Tracker/Info


-or-


 

Live Flight TrackerFlight Track Log ✈ SWA267 ✈ 25-Apr-2013 ✈ KMCO - KORF

Flight Track Log - Related Links

Times and Time Zones

All times are in EDT time to prevent confusion due to time zone crossing. See the SWA267 flight status page for this flight to view local times or setup timezone preferences in your user account.

Time Position Orientation Groundspeed Altitude Reporting Facility
EDT Latitude Longitude Course Direction KTS MPH feet Rate Location/Type
10:07AM 28.4167 -81.3000 156° South 156 180 400  Level Orlando TRACON
10:08AM 28.3833 -81.2833 156° South 171 197 1,700 1,980 Climbing Orlando TRACON
10:09AM 28.3333 -81.2500 150° Southeast 235 270 3,900 2,520 Climbing Orlando TRACON
10:10AM 28.3500 -81.1667 77° East 228 262 6,800 2,520 Climbing Orlando TRACON
10:12AM 28.5100 -81.1822 355° North 263 303 12,500 2,640 Climbing Jacksonville Center
10:13AM 28.6064 -81.2183 342° North 311 358 15,600 2,760 Climbing Jacksonville Center
10:14AM 28.7028 -81.2500 344° North 335 386 18,100 2,280 Climbing Jacksonville Center
10:16AM 28.9061 -81.3178 344° North 373 429 22,600 2,100 Climbing Jacksonville Center
10:17AM 29.0111 -81.3611 340° North 385 443 24,500 1,860 Climbing Jacksonville Center
10:18AM 29.1178 -81.3953 344° North 390 449 26,400 1,680 Climbing Jacksonville Center
10:19AM 29.2328 -81.4078 355° North 407 468 27,900 1,560 Climbing Jacksonville Center
10:20AM 29.3478 -81.4156 357° North 422 486 29,600 1,980 Climbing Jacksonville Center
10:21AM 29.4628 -81.4256 356° North 422 486 31,900 1,920 Climbing Jacksonville Center
10:22AM 29.5775 -81.4383 354° North 416 479 33,500 1,500 Climbing Jacksonville Center
10:23AM 29.6883 -81.4486 355° North 404 465 35,000 660 Climbing Jacksonville Center
10:24AM 29.7908 -81.4589 355° North 409 471 34,900  Descending Jacksonville Center
10:25AM 29.9017 -81.4694 355° North 409 471 35,000  Climbing Jacksonville Center
10:26AM 30.0061 -81.4797 355° North 396 456 35,000  Level Jacksonville Center
10:27AM 30.1086 -81.4903 355° North 384 442 35,000  Level Jacksonville Center
10:28AM 30.2108 -81.4986 356° North 373 429 35,100 480 Climbing Jacksonville Center
10:29AM 30.3133 -81.5089 355° North 368 423 36,000 900 Climbing Jacksonville Center
10:30AM 30.4219 -81.5050 North 368 423 37,000 480 Climbing Jacksonville Center
10:31AM 30.5325 -81.4961 North 378 435 37,000  Level Jacksonville Center
10:32AM 30.6450 -81.4872 North 389 448 37,000  Level Jacksonville Center
10:33AM 30.7536 -81.4783 North 389 448 37,000  Level Jacksonville Center
10:34AM 30.8683 -81.4694 North 394 453 37,000  Level Jacksonville Center
10:35AM 30.9831 -81.4628 North 401 461 37,000  Level Jacksonville Center
10:36AM 31.0978 -81.4514 North 406 467 37,000  Level Jacksonville Center
10:37AM 31.2125 -81.4425 North 406 467 37,000  Level Jacksonville Center
10:38AM 31.3292 -81.4211 North 411 473 37,000  Level Jacksonville Center
10:39AM 31.4414 -81.3878 14° North 411 473 37,000  Level Jacksonville Center
10:40AM 31.5664 -81.3539 13° North 416 479 37,000  Level Jacksonville Center
10:41AM 31.6683 -81.3278 12° North 416 479 37,000  Level Jacksonville Center
10:42AM 31.7911 -81.2942 13° North 410 472 37,000  Level Jacksonville Center
10:43AM 31.8953 -81.2703 11° North 416 479 37,000  Level Jacksonville Center
10:44AM 32.0056 -81.2389 14° North 416 479 37,000  Level Jacksonville Center
10:45AM 32.1178 -81.2075 13° North 410 472 37,000  Level Jacksonville Center
10:46AM 32.2083 -81.1125 42° Northeast 410 472 37,000  Level Jacksonville Center
10:47AM 32.2961 -80.9756 53° Northeast 447 514 37,000  Level Jacksonville Center
10:48AM 32.3714 -80.8583 53° Northeast 456 525 37,000  Level Jacksonville Center
10:49AM 32.4406 -80.7486 53° Northeast 462 532 37,000  Level Jacksonville Center
10:50AM 32.5281 -80.6133 52° Northeast 462 532 37,000  Level Jacksonville Center
10:51AM 32.6072 -80.4906 53° Northeast 469 540 37,000  Level Jacksonville Center
10:52AM 32.6822 -80.3700 54° Northeast 462 532 37,000  Level Jacksonville Center
10:53AM 32.7608 -80.2444 53° Northeast 462 532 37,000  Level Jacksonville Center
10:54AM 32.8397 -80.1236 52° Northeast 462 532 37,000  Level Jacksonville Center
10:55AM 32.9228 -80.0072 50° Northeast 467 537 37,000  Level Jacksonville Center
10:56AM 33.0208 -79.9147 38° Northeast 448 516 37,000  Level Jacksonville Center
10:57AM 33.1186 -79.8197 39° Northeast 448 516 37,000  Level Jacksonville Center
10:58AM 33.2144 -79.7294 38° Northeast 443 510 37,000  Level Jacksonville Center
10:59AM 33.3103 -79.6367 39° Northeast 443 510 37,000  Level Jacksonville Center
11:00AM 33.4078 -79.5386 40° Northeast 443 510 37,000 -180 Level Jacksonville Center
11:01AM 33.5036 -79.4478 38° Northeast 443 510 36,700 -900 Descending Jacksonville Center
11:02AM 33.5989 -79.3517 40° Northeast 443 510 35,300 -1,500 Descending Jacksonville Center
11:03AM 33.6964 -79.2581 39° Northeast 443 510 33,800 -1,200 Descending Jacksonville Center
11:04AM 33.7775 -79.1772 40° Northeast 438 504 32,900 -420 Descending Jacksonville Center
11:05AM 33.8769 -79.0781 40° Northeast 444 511 33,000  Climbing Jacksonville Center
11:06AM 33.9781 -78.9783 39° Northeast 456 525 33,000  Level Jacksonville Center
11:07AM 34.0792 -78.8786 39° Northeast 461 531 33,000  Level Jacksonville Center
11:09AM 34.2867 -78.6736 39° Northeast 470 541 33,000  Level Washington Center
11:10AM 34.3894 -78.5692 40° Northeast 475 547 33,000 -300 Level Washington Center
11:11AM 34.4919 -78.4669 39° Northeast 475 547 32,400 -840 Descending Washington Center
11:12AM 34.5947 -78.3622 40° Northeast 475 547 31,400 -1,020 Descending Washington Center
11:13AM 34.6725 -78.2336 54° Northeast 470 541 30,400 -960 Descending Washington Center
11:14AM 34.7300 -78.0839 65° Northeast 476 548 29,500 -960 Descending Washington Center
11:15AM 34.7919 -77.9186 65° Northeast 476 548 28,500 -960 Descending Washington Center
11:16AM 34.8444 -77.7811 65° Northeast 482 555 27,600 -900 Descending Washington Center
11:17AM 34.9400 -77.6847 40° Northeast 464 534 26,700 -1,020 Descending Washington Center
11:18AM 35.0539 -77.6269 23° Northeast 432 497 25,600 -1,020 Descending Washington Center
11:19AM 35.1656 -77.5611 26° Northeast 432 497 24,700 -960 Descending Washington Center
11:20AM 35.2792 -77.4953 25° Northeast 437 503 23,700 -900 Descending Washington Center
11:21AM 35.3908 -77.4317 25° Northeast 437 503 23,000 -360 Descending Washington Center
11:22AM 35.5022 -77.3703 24° Northeast 437 503 23,000  Level Washington Center
11:23AM 35.6117 -77.3089 25° Northeast 437 503 23,000  Level Washington Center
11:24AM 35.7211 -77.2472 25° Northeast 426 490 23,000  Level Washington Center
11:25AM 35.8283 -77.1856 25° Northeast 426 490 23,000 -120 Level Washington Center
11:26AM 35.9292 -77.1233 27° Northeast 421 484 22,800 -600 Descending Washington Center
11:27AM 36.0386 -77.0639 24° Northeast 413 475 21,800 -1,620 Descending Washington Center
11:28AM 36.1500 -76.9992 25° Northeast 418 481 19,600 -2,340 Descending Washington Center
11:29AM 36.2339 -76.9542 23° Northeast 426 490 17,800 -1,920 Descending Washington Center
11:29AM 36.2528 -76.9392 33° Northeast 418 481 17,700 -2,100 Descending Washington Center
11:30AM 36.3117 -76.9092 22° Northeast 404 465 16,300 -2,640 Descending Washington Center
11:31AM 36.4042 -76.8358 33° Northeast 403 464 13,900 -2,220 Descending Washington Center
11:31AM 36.4381 -76.7900 47° Northeast 397 457 12,900 -1,620 Descending Washington Center
11:32AM 36.4781 -76.7336 49° Northeast 386 444 12,300 -900 Descending Washington Center
11:32AM 36.5097 -76.6981 42° Northeast 381 438 12,000 -900 Descending Washington Center
11:33AM 36.5539 -76.6650 31° Northeast 320 368 11,400 -1,440 Descending Washington Center
11:33AM 36.5833 -76.6369 37° Northeast 349 402 10,600 -1,680 Descending Washington Center
11:34AM 36.6233 -76.6011 36° Northeast 315 362 9,700 -1,920 Descending Washington Center
11:34AM 36.6569 -76.5733 34° Northeast 327 376 8,700 -2,100 Descending Washington Center
11:35AM 36.6989 -76.5322 38° Northeast 318 366 7,600 -1,620 Descending Washington Center
11:35AM 36.7117 -76.4961 66° East 299 344 7,100 -1,440 Descending Washington Center
11:36AM 36.7247 -76.4444 72° East 292 336 6,300 -1,800 Descending Washington Center
11:36AM 36.7375 -76.4031 69° East 284 327 5,300 -2,220 Descending Washington Center
11:37AM 36.7481 -76.3592 73° East 254 292 4,100 -1,740 Descending Washington Center
11:37AM 36.7631 -76.3256 61° Northeast 260 299 3,600 -1,200 Descending Washington Center
11:38AM 36.7861 -76.3078 32° Northeast 191 220 2,900 -1,200 Descending Washington Center
11:38AM 36.8050 -76.2872 41° Northeast 202 232 2,400 -1,320 Descending Washington Center
11:39AM 36.8258 -76.2717 31° Northeast 150 173 1,600 -1,080 Descending Washington Center
11:40AM 36.8531 -76.2433 40° Northeast 117 135 900 -720 Descending Washington Center